Theta_e
323 320 324 324 310 308 301 304 308 301 301 299 300 305 306 297 298 300 302 299 299 298 298 303 316 321 324 328 331 333 336 338 340 342 343 347 346 345 344 344 345 346 346 346 347 345 345 344 343
316 318 326 320 305 298 301 308 305 301 298 299 298 299 298 293 297 296 299 298 298 298 299 303 312 317 320 323 326 328 331 333 335 336 339 341 344 345 345 345 345 344 344 346 346 347 345 345 344
312 319 318 313 308 299 301 306 301 298 298 298 295 296 295 292 295 294 296 297 298 298 298 302 310 314 317 319 322 323 326 327 329 331 335 337 338 340 343 344 344 343 344 345 346 345 346 345 345
314 322 319 306 303 307 306 300 299 297 297 298 297 292 292 294 294 294 296 296 297 298 298 299 307 310 313 315 317 319 321 322 324 327 329 330 332 333 335 337 338 341 343 342 342 345 344 344 345
320 317 306 303 303 301 299 300 300 297 296 295 295 291 290 292 294 295 296 296 296 297 297 297 302 306 309 311 313 315 316 317 318 319 322 323 325 327 328 331 333 334 336 339 342 342 342 343 344
314 315 302 298 301 298 297 298 298 296 296 294 294 293 291 293 293 294 296 296 296 296 297 297 297 300 303 307 309 310 311 312 312 314 315 315 317 318 321 324 328 328 330 333 335 337 339 341 342
312 309 303 302 303 298 295 297 296 294 294 292 294 292 291 292 293 294 295 296 296 296 296 297 297 297 299 301 303 305 306 306 307 308 308 308 309 311 313 316 321 322 324 326 328 330 331 335 339
315 312 303 304 302 301 295 290 293 294 291 293 293 292 289 291 293 294 295 295 296 296 296 296 297 297 298 299 299 300 302 302 302 303 303 303 305 306 307 309 312 314 317 320 322 323 324 325 333
307 306 301 302 303 300 294 294 289 291 290 289 290 290 290 291 292 293 294 294 295 294 295 295 295 296 297 297 297 298 299 299 300 300 300 302 303 303 305 304 305 308 310 312 316 317 318 317 325
307 306 304 296 298 294 291 292 293 291 287 286 287 288 289 290 291 289 290 291 292 292 293 294 295 295 296 296 297 298 298 298 298 299 299 300 301 301 301 302 302 304 304 307 309 311 311 312 316
296 299 294 293 294 292 291 290 291 291 289 291 288 287 288 288 288 288 289 290 290 291 292 293 293 294 295 296 297 297 297 297 297 297 298 299 300 300 301 301 301 302 302 303 305 307 307 308 308
293 290 290 289 292 293 291 290 288 290 288 290 290 289 288 287 287 288 288 289 289 290 291 292 293 293 294 295 295 295 295 296 295 296 296 297 298 298 298 299 300 300 301 301 302 303 304 305 307
290 288 289 290 290 290 291 289 288 284 288 288 288 287 286 286 287 288 288 289 289 289 290 291 292 292 293 293 294 294 294 294 294 295 295 295 296 296 297 298 298 299 299 299 300 301 302 303 304
288 288 287 289 288 288 287 287 288 287 288 287 287 286 286 286 286 287 288 287 288 288 289 290 290 291 292 292 292 293 293 293 293 293 293 294 295 295 296 296 296 296 297 297 298 299 300 302 302
288 286 286 285 286 286 288 286 286 289 287 286 286 286 286 286 286 286 287 286 287 287 288 289 290 290 290 290 291 291 291 291 291 291 291 291 292 293 293 293 293 294 295 296 297 297 299 299 299
287 288 286 283 284 285 286 288 285 288 286 286 286 286 286 285 286 287 287 287 287 287 286 287 288 289 288 289 289 289 289 289 289 289 289 289 289 290 290 290 290 292 293 294 294 295 296 296 296
286 285 284 284 282 283 285 287 284 287 286 286 286 286 286 285 285 287 287 287 287 286 286 286 288 288 288 288 288 288 288 288 288 288 288 288 288 289 289 289 289 290 291 291 292 293 294 293 294
282 283 282 283 282 281 282 283 285 286 286 286 286 286 285 285 286 287 287 287 286 286 286 286 287 287 288 288 288 288 288 287 288 287 287 287 287 287 288 288 288 288 288 289 290 290 292 292 292
283 282 281 281 280 280 282 282 284 285 285 286 286 285 285 285 287 287 287 287 286 286 286 285 286 286 288 288 288 287 286 286 286 286 286 287 286 286 286 286 287 287 286 286 288 289 289 289 291
281 280 281 280 279 279 281 280 284 285 284 286 286 285 285 286 285 285 286 286 286 285 285 285 285 285 286 287 287 288 287 286 286 286 286 286 286 286 285 286 285 286 286 285 285 287 287 288 290
278 279 278 278 279 279 279 282 281 282 285 286 287 288 287 286 284 285 285 285 286 285 285 285 285 285 285 286 286 286 286 286 286 285 285 285 286 286 285 285 285 285 285 284 284 285 286 285 287
276 277 277 276 278 277 278 277 283 282 281 282 284 286 287 286 286 286 285 286 286 286 287 286 286 285 285 285 286 285 285 284 284 284 285 285 285 285 285 285 285 285 285 284 284 284 285 286 284
276 277 277 277 277 275 276 276 284 279 282 284 284 285 287 287 287 286 286 286 287 287 286 287 286 285 285 285 285 286 284 285 285 285 284 284 285 284 284 284 284 284 284 284 283 283 284 284 284
279 278 277 277 276 275 274 275 281 283 284 283 283 285 286 287 287 287 287 287 286 287 287 287 285 285 285 285 284 284 284 284 284 284 284 284 284 284 284 284 284 284 283 283 283 283 283 283 284
278 277 277 275 275 275 273 273 280 285 285 283 283 284 286 287 286 286 286 285 286 286 286 286 286 285 285 285 284 284 283 284 283 284 284 283 284 284 283 283 283 283 283 283 283 283 282 282 283
276 276 277 271 272 274 272 274 283 283 282 283 283 283 285 286 286 286 286 286 286 286 286 286 286 285 285 285 285 284 284 285 285 284 284 284 284 283 282 282 283 282 282 282 282 282 282 282 282
274 275 276 272 266 271 277 280 284 282 283 283 282 282 283 284 285 286 286 286 286 286 286 286 286 286 286 285 285 284 284 284 284 283 284 284 283 282 282 282 282 282 281 281 281 281 280 281 281
274 276 273 274 270 269 274 274 278 282 282 283 283 283 283 283 284 286 286 286 286 287 287 287 287 286 287 286 285 285 285 284 284 284 283 283 283 282 281 281 281 281 281 280 280 280 280 280 281
272 273 272 274 274 273 271 277 284 281 281 282 283 283 283 284 283 285 286 286 286 286 286 286 286 286 286 286 286 285 285 284 284 283 283 283 283 282 281 280 280 280 280 279 279 279 279 278 279
272 274 275 275 270 270 270 275 282 282 282 282 282 283 283 283 284 285 285 286 285 285 285 285 285 285 286 286 286 285 285 284 283 283 283 283 282 282 281 280 279 279 279 279 278 277 278 277 278
Wind_Speed
14 8 3 4 5 4 3 5 1 4 5 3 1 1 7 10 5 3 7 12 12 10 11 13 20 19 20 19 19 18 18 18 17 17 16 15 9 4 4 6 7 8 9 9 7 4 5 7 7
9 4 4 2 4 6 5 3 4 3 7 10 7 4 5 7 6 5 3 15 12 11 10 12 18 17 18 19 19 19 18 17 16 16 15 15 15 13 11 9 7 7 8 8 9 9 5 9 9
6 4 3 2 1 4 2 2 8 11 4 2 5 8 4 5 6 4 8 11 10 10 11 12 17 17 18 18 18 18 18 18 18 16 16 16 16 16 15 14 12 11 10 9 8 8 9 8 10
3 3 2 6 6 2 3 4 11 10 5 6 6 8 6 6 3 6 7 8 8 9 10 11 16 16 17 17 17 17 17 17 18 17 17 17 16 15 15 14 14 14 14 11 11 10 7 8 9
1 1 3 4 3 3 3 9 7 4 4 6 2 5 5 4 3 5 6 8 9 9 10 10 15 15 16 16 17 17 17 17 18 16 15 17 16 16 16 17 16 15 13 13 13 13 11 9 7
3 2 5 8 5 5 5 4 3 3 4 6 5 5 5 4 2 5 6 8 9 9 9 9 10 13 14 17 16 17 17 17 17 16 15 15 16 17 17 17 16 17 15 16 15 14 13 12 10
4 4 9 8 9 8 6 5 1 3 3 5 2 4 4 3 4 4 5 6 8 10 9 10 10 9 10 14 15 16 17 17 17 18 16 15 15 16 17 17 17 17 16 16 15 15 15 14 11
2 4 7 7 10 8 8 4 5 3 3 3 4 3 6 3 3 2 4 6 8 10 11 11 10 10 9 9 15 15 15 17 17 17 18 15 13 15 15 18 18 17 16 16 16 15 15 15 11
1 6 8 7 9 6 6 4 4 4 6 4 4 3 5 6 2 2 1 8 7 8 11 10 11 10 10 9 9 11 14 16 17 16 17 12 9 11 11 14 16 17 18 17 16 17 16 16 8
2 4 5 4 3 7 7 2 7 4 2 3 5 5 5 6 6 2 5 8 9 11 10 10 11 11 9 8 9 10 10 10 12 13 13 10 10 10 10 10 15 16 19 15 17 17 15 13 8
4 1 1 4 4 1 6 10 5 4 6 7 9 13 8 7 4 5 7 8 8 8 8 10 9 10 10 9 7 6 6 7 8 14 12 10 8 9 8 7 8 9 13 9 12 11 8 10 8
3 6 4 4 4 2 5 10 6 3 3 1 10 11 8 6 5 4 6 6 6 7 9 10 10 9 10 7 7 8 8 8 8 11 14 10 7 9 9 7 9 9 8 11 10 7 10 10 10
4 4 6 5 6 6 5 4 4 4 6 10 11 7 6 5 5 5 6 6 5 6 7 9 9 9 8 9 7 8 8 8 9 10 13 10 10 9 8 9 9 9 10 10 9 10 9 10 10
4 8 6 5 5 4 2 3 1 6 11 10 10 9 7 6 4 5 5 6 6 5 6 7 9 9 8 9 10 8 7 8 9 10 12 13 9 9 9 9 9 9 10 9 9 10 9 9 10
5 5 5 5 2 3 0 5 7 10 13 11 10 8 7 6 5 5 5 5 4 5 6 7 8 9 9 9 9 8 8 8 9 9 13 14 12 11 10 9 10 10 9 11 9 10 9 9 10
2 2 4 3 2 2 3 5 4 12 13 12 10 8 7 6 5 5 5 5 4 5 6 6 5 7 9 9 8 7 7 7 8 8 9 13 13 12 10 9 10 10 9 9 9 10 10 10 10
1 2 3 2 3 2 5 5 3 11 11 12 11 10 8 7 6 6 6 5 4 5 6 7 6 7 7 8 8 8 9 8 8 8 9 12 13 12 10 9 10 10 9 9 10 9 10 11 11
4 4 2 4 4 1 6 15 5 11 13 15 14 12 12 11 11 10 8 6 5 5 5 6 5 5 5 5 5 6 7 7 7 8 9 12 10 12 10 9 11 10 10 10 11 12 11 11 12
5 2 2 1 2 4 7 14 15 11 16 17 16 16 16 14 11 10 9 7 6 5 5 5 5 5 3 3 3 5 6 6 7 7 10 11 11 12 11 9 10 10 10 11 13 11 12 11 14
1 1 3 1 0 4 8 17 19 16 21 21 20 20 18 15 12 12 11 9 8 7 6 5 5 5 5 3 3 3 3 5 5 5 8 10 10 11 10 10 9 11 8 12 12 12 10 8 11
2 3 1 4 4 2 10 11 5 5 18 15 22 18 19 18 17 16 14 12 10 9 8 6 6 5 4 4 4 4 4 3 4 5 5 7 9 9 10 10 9 9 9 9 11 11 13 9 9
3 1 1 2 4 5 5 9 7 2 10 17 17 20 20 19 17 15 15 14 13 11 9 7 6 6 4 3 4 4 4 4 3 4 4 5 7 8 9 9 10 10 8 10 10 9 9 9 9
4 2 3 1 1 5 2 6 2 2 9 10 15 19 21 20 20 18 18 16 14 11 10 8 7 6 6 5 4 3 5 4 3 3 4 5 5 7 8 9 9 9 7 9 10 10 10 8 7
8 3 2 2 1 4 2 4 5 3 3 2 3 11 18 20 20 18 17 14 13 10 10 9 8 7 6 5 5 4 5 4 3 3 3 3 3 4 7 7 7 7 7 8 8 9 9 8 7
2 3 1 2 3 3 1 5 12 11 10 7 10 6 12 18 19 18 17 15 14 14 13 10 10 9 8 7 6 5 3 3 2 2 2 3 3 3 5 6 6 6 7 7 7 7 7 7 6
3 3 2 4 3 3 2 8 4 2 5 6 6 6 6 15 17 18 18 17 16 16 15 13 11 10 9 8 7 5 5 3 2 1 0 1 2 3 4 5 5 6 7 7 7 5 5 6 6
4 4 3 6 2 3 5 6 11 8 5 8 6 4 3 10 16 18 17 16 16 15 15 14 12 10 9 8 7 7 6 6 4 4 3 1 1 1 2 4 5 5 6 7 7 5 6 7 6
2 5 3 0 4 6 5 7 9 6 5 9 9 5 3 6 13 16 16 16 14 14 13 12 11 10 9 8 7 7 7 7 6 5 5 5 3 3 3 3 4 5 5 6 7 6 6 7 6
5 4 1 3 3 4 5 5 4 5 3 4 7 6 4 7 12 15 15 15 14 12 12 12 11 11 9 9 8 8 8 8 7 7 6 6 5 5 4 4 4 5 5 5 6 6 6 7 7
3 4 8 5 6 2 4 11 5 6 6 5 5 6 3 5 7 12 14 14 14 13 12 12 10 11 11 9 9 9 8 8 8 8 8 7 7 6 5 5 5 5 5 5 6 7 6 7 8
Wind_Direction
312 316 265 238 227 243 186 130 357 125 132 26 70 301 93 32 14 50 149 18 1 1 358 351 358 1 9 13 18 23 28 27 22 24 19 18 17 32 41 32 25 14 4 0 359 29 216 183 175
313 301 227 278 250 224 159 123 166 56 105 108 76 76 48 84 49 89 165 355 358 4 4 4 358 4 11 16 19 22 25 28 27 25 22 26 22 22 21 18 14 12 8 2 356 0 341 197 188
283 276 266 251 198 249 217 122 126 114 105 112 108 37 50 76 65 42 7 349 357 11 8 9 3 8 15 15 20 23 25 25 24 27 26 28 32 27 24 24 19 15 7 358 349 356 358 218 203
291 198 180 251 235 80 335 130 129 131 97 61 100 79 97 45 44 13 4 4 10 15 15 16 8 11 18 19 21 23 26 27 25 26 29 30 31 32 30 28 25 19 13 360 352 352 344 347 234
280 263 189 232 167 86 68 135 135 115 101 83 355 119 87 72 62 33 27 24 22 20 17 21 15 15 21 23 25 26 28 28 27 28 28 31 29 31 30 29 28 22 15 9 1 356 351 336 328
175 272 213 213 163 130 112 144 172 76 85 96 96 109 93 91 92 46 39 40 32 27 24 22 25 20 25 26 27 28 29 28 27 29 30 32 31 29 28 28 29 23 19 18 10 3 353 341 332
231 219 235 239 186 165 138 118 133 77 107 69 64 111 99 98 67 52 44 49 45 34 30 28 22 20 33 34 29 31 31 29 27 25 27 29 32 31 27 22 26 25 18 20 16 9 2 349 335
275 237 222 227 202 182 128 76 82 37 96 82 340 150 156 79 57 109 55 55 45 36 31 27 25 24 22 25 29 30 30 29 26 25 21 23 27 23 27 20 18 20 17 17 14 12 5 355 1
259 229 233 223 214 144 140 148 34 52 111 57 22 24 84 96 69 91 123 63 44 38 33 27 25 26 23 30 29 29 29 28 25 20 19 19 21 17 19 22 13 21 14 11 8 10 5 356 354
262 234 238 19 66 138 125 80 130 139 128 93 104 100 90 95 75 70 59 50 37 30 27 25 26 27 27 29 25 28 30 31 28 21 18 18 18 16 6 16 14 17 8 7 3 9 2 6 355
32 329 50 42 40 72 161 126 137 159 208 196 204 150 145 105 98 78 63 53 39 33 33 30 29 31 30 35 31 29 32 29 27 26 20 21 20 16 17 10 10 7 7 5 360 1 3 358 353
121 59 43 28 20 119 134 115 121 170 94 343 126 132 127 125 111 88 79 68 52 44 35 31 34 38 39 38 41 40 37 34 32 28 22 21 21 22 21 18 14 13 7 3 2 356 351 351 347
79 104 62 76 74 74 125 89 127 128 113 117 117 120 122 108 120 100 92 79 68 60 49 42 38 41 41 44 48 45 41 37 36 31 29 22 24 25 22 23 20 18 9 7 2 356 353 350 347
97 102 99 53 60 69 84 103 274 164 154 147 152 152 148 150 132 123 106 95 80 72 62 59 51 49 53 52 52 49 45 43 42 39 31 31 28 26 26 22 21 16 12 7 3 358 352 351 347
135 109 122 55 27 83 331 196 223 152 169 167 172 164 161 155 148 119 107 98 77 66 68 64 64 57 58 61 57 53 46 46 44 41 36 32 30 29 27 25 20 12 9 4 4 3 357 353 349
115 169 201 79 338 87 241 249 146 164 176 186 186 185 183 167 151 137 133 124 113 100 79 78 77 73 66 65 61 61 54 53 48 43 39 35 32 27 33 28 22 13 13 11 7 7 357 355 350
104 243 232 168 40 318 237 280 118 179 198 202 201 200 198 187 186 172 163 148 132 102 89 81 78 79 79 73 74 67 60 55 50 46 39 35 34 29 34 29 22 17 17 18 11 11 4 356 349
163 192 208 266 38 264 247 263 211 196 209 218 211 205 207 206 201 180 174 164 152 130 103 89 83 89 103 91 83 74 64 58 50 45 40 35 33 32 31 30 26 21 21 18 12 11 8 8 349
106 136 257 172 45 288 262 272 267 215 219 225 219 212 212 209 192 183 181 177 171 160 148 121 107 82 112 119 97 76 65 61 56 49 40 38 34 31 30 29 25 20 26 18 15 5 7 12 0
107 230 251 169 68 267 297 280 268 227 226 222 218 216 211 204 190 190 190 189 192 174 166 150 117 90 75 82 89 72 83 74 62 56 49 37 37 33 35 29 27 24 19 21 19 13 6 16 16
35 293 292 309 314 224 298 263 256 232 236 231 227 222 213 204 196 192 193 196 193 192 183 173 150 123 99 107 129 129 124 117 88 57 50 41 37 36 35 33 28 25 23 20 17 13 15 6 18
171 67 350 318 293 309 339 297 279 238 245 230 233 221 214 205 201 194 193 196 196 194 182 178 166 156 139 139 119 97 84 92 70 60 57 56 40 39 34 31 27 26 21 20 14 13 12 9 14
90 141 118 117 275 302 130 265 233 250 275 254 231 223 217 204 198 195 194 196 194 187 187 185 178 175 164 159 144 129 111 111 117 108 88 66 56 41 33 28 26 25 20 17 13 11 13 14 6
137 125 107 107 298 245 50 280 296 221 230 299 334 230 218 207 199 195 194 189 189 187 189 188 189 190 182 185 173 146 127 123 125 92 76 59 55 43 33 25 24 22 16 13 6 5 9 8 5
212 196 233 243 208 282 74 247 269 277 293 295 301 283 223 207 198 193 186 187 189 190 191 192 196 196 194 198 197 189 168 157 114 90 57 37 39 33 28 15 15 14 9 7 359 1 0 3 356
165 267 218 243 254 339 126 245 253 65 325 298 289 288 250 211 200 195 191 190 192 192 192 193 195 200 195 202 206 207 210 215 209 188 95 46 20 19 9 4 3 3 0 358 357 351 355 347 348
147 225 19 106 87 265 245 263 269 100 45 21 336 286 252 215 208 198 193 193 193 193 194 194 196 200 198 204 210 213 217 221 225 218 225 241 263 328 339 341 344 350 350 352 347 348 348 343 343
271 132 141 243 219 240 235 271 255 338 11 0 11 334 269 218 210 206 197 194 194 195 192 194 200 201 201 208 218 226 225 227 228 225 228 231 236 239 273 305 321 330 334 340 339 337 336 335 339
157 189 115 321 262 253 286 248 185 224 275 327 345 328 277 220 212 208 202 196 191 189 188 194 200 202 206 209 220 228 231 227 226 229 231 230 230 234 252 274 293 307 316 327 325 327 325 327 327
323 210 191 222 194 269 340 270 173 250 272 260 318 342 314 264 239 222 206 195 188 190 189 196 199 205 210 208 215 226 234 229 226 229 226 218 225 224 239 252 268 285 299 313 318 318 317 319 321